Погода в Дровосечном

Россия / Орловская область     52°12′49″N   36°44′39″E
темп.,
°C
ветер,
м/с
пор.,
м/с
влажн.,
%
обл.,
%
осадки,
мм/ч
давл.,
гПа
погр.,
м
8 марта, пн
пн800:00−4з5128396 1.4 1004319
03:00−5зюз4108498 1.4 1004202
06:00−5юз51083100 0.0 1003211
09:00−4з61291100 0.0 1004671
12:00−3з7108369 0.0 10061162
15:00−3зсз588377 0.1 1007981
18:00−5з359280 0.2 100897
21:00−7з349389 0.2 101070
9 марта, вт
вт900:00−9сз339491 0.1 101050
03:00−11сз339679 0.1 101259
06:00−10сз3696100 0.3 1013154
09:00−11ссз599495 0.3 1016326
12:00−11ссз579081 0.0 1018507
15:00−10сз578790 0.0 1019643
18:00−13сз339299 0.0 102028
21:00−15сз239476 0.0 102221
10 марта, ср
ср1000:00−16сз239756 0.0 102420
03:00−17зсз239748 0.0 102520
06:00−18з22976 0.0 102520
09:00−15юз229345 0.0 102678
12:00−10юз249195 0.1 1025299
15:00−7зюз469397 0.4 1025465
18:00−7зюз3695100 0.6 1024290
21:00−10всв4596100 1.4 1025129
11 марта, чт
чт1100:00−14в5995100 0.6 1027311
03:00−16в5896100 0.9 1028254
06:00−19в5896100 0.1 1029205
09:00−19в588874 0.1 1031235
12:00−16в47860 0.0 1031284
15:00−14в46870 0.0 1031354
18:00−16вюв34920 0.0 103156
21:00−19вюв34900 0.0 103256
12 марта, пт
пт1200:00−19юв47870 0.0 1032108
03:00−19юв47926 0.0 1031106
06:00−16юв5108977 0.0 1030172
09:00−12ююв6138169 0.0 1029340
12:00−7ю81481100 0.0 1027573
15:00−5ю81476100 0.0 10251010
18:00−4ю81577100 0.0 10221044
21:00−5ю101790100 0.3 10211025